Regional Weather Roundup
Issued by NWS Green Bay, WI

Home | Current Version | Previous Version | Graphics & Text | Print | Product List | Glossary Off
Versions: 1 2 3 4 5 6 7 8 9 10 11 12 13 14 15 16 17 18 19 20 21 22 23 24 25 26 27 28 29 30 31 32 33 34 35 36 37 38 39 40 41 42 43 44 45 46 47 48 49 50

000
ASUS43 KGRB 050000
RWRGRB

NORTH-CENTRAL AND NORTHEAST WISCONSIN REGIONAL WEATHER ROUNDUP
NATIONAL WEATHER SERVICE GREEN BAY WI
600 PM CST SUN DEC 04 2016

WIZ005-009-010>012-018-019-050100-
NORTH CENTRAL WISCONSIN

CITY           SKY/WX    TMP DP  RH WIND       PRES   REMARKS
IRONWOOD       FLURRIES  30  28  92 VRB6      29.73F
MANITOWISH WTR NOT AVBL
ARBOR VITAE    NOT AVBL
EAGLE RIVER    NOT AVBL
LAND O LAKES   NOT AVBL
RHINELANDER    LGT SNOW  29  28  96 S7        29.76F FOG
PHILLIPS       NOT AVBL
ANTIGO         NOT AVBL
TOMAHAWK       NOT AVBL
MERRILL        NOT AVBL
$$

WIZ013-073-050100-
NORTHEAST WISCONSIN

CITY           SKY/WX    TMP DP  RH WIND       PRES   REMARKS
IRON MOUNTAIN  LGT SNOW  29  26  89 SE7       29.80F FOG
MARINETTE      LGT SNOW  32  31  96 CALM        N/A  FOG
$$

WIZ017-030-035>037-045-050100-
CENTRAL WISCONSIN

CITY           SKY/WX    TMP DP  RH WIND       PRES   REMARKS
MEDFORD        NOT AVBL
WAUSAU         LGT SNOW  30  28  92 S10       29.78F FOG
MOSINEE        CLOUDY    28  28 100 S9        29.80F FOG
MARSHFIELD     CLOUDY    30  28  92 S10       29.79S FOG
WISC RAPIDS    CLOUDY    31  30  96 SW7       29.83F FOG
STEVENS POINT  NOT AVBL
WAUPACA        NOT AVBL
SHAWANO        NOT AVBL
CLINTONVILLE   NOT AVBL
WAUTOMA        LGT SNOW  31  29  92 S6        29.85S FOG
$$

WIZ038-039-048-051-050100-
FOX VALLEY

CITY           SKY/WX    TMP DP  RH WIND       PRES   REMARKS
NWS GREEN BAY  LGT SNOW  33  33 100 S7        29.85F FOG
APPLETON       LGT SNOW  30  30 100 S8        29.83F
OSHKOSH        LGT SNOW  31  29  92 S8        29.85F VSB 1
FOND DU LAC    LGT SNOW  31  28  89 S8        29.86S FOG
$$

WIZ022-050-052-050100-
EAST CENTRAL WISCONSIN

CITY           SKY/WX    TMP DP  RH WIND       PRES   REMARKS
EPHRAIM        NOT AVBL
WASHINGTON ISL NOT AVBL
STURGEON BAY   LGT SNOW  31  29  92 CALM      29.86F FOG
MANITOWOC      NOT AVBL
SHEBOYGAN      LGT SNOW  32  30  92 SW5       29.86F FOG
$$

LMZ563-521-522-541>543-050100-
LAKESHORE

STATION/POSITION TIME  TEMP    WIND        PRES    VSBY  WAVE
                       AIR SEA DIR/SP/G                  HT/PER
                 (UTC) (F)     (DEG/KT/KT) (MB)    (MI)  (FT/S)
SHEBOYGAN LKSHOR 2300   33     210/  7/  9 1012.3F
KEWAUNEE LKSHORE 2330   32        CALM     1011.0F
ALGOMA MARINA    2321             CALM       N/A
NORTHPORT PIER   2340   32        CALM     1011.5F
SISTER BAY LKSHO 2253   32        CALM       N/A
CHAMBERS ISLAND  2330   33      CALM  /  3 1011.2F
MENOMINEE LKSHOR 2330   33     200/  3/  5 1010.6F
$$



USA.gov is the U.S. government's official web portal to all federal, state and local government web resources and services.